This is the latest recevied weather packets stored in our database for station/object KD5BIG-13. If no packets are shown the sender has not sent any weather packets the latest 1 day(s).
| Time | Temp. | Humidity | Pressure | Rain* | Wind** | Luminosity | Snow |
|---|---|---|---|---|---|---|---|
| 1778001443 | 26.11° C | 69% | 1015.4 hPa | 0 mm | 1.79 m/s, 208° | 348 W/m² | - |
| 1778001141 | 25.56° C | 69% | 1015.5 hPa | 0 mm | 3.58 m/s, 208° | 430 W/m² | - |
| 1778000837 | 25.56° C | 68% | 1015.6 hPa | 0 mm | 3.58 m/s, 213° | 454 W/m² | - |
| 1778000534 | 25.56° C | 70% | 1015.5 hPa | 0 mm | 1.34 m/s, 159° | 897 W/m² | - |
| 1778000229 | 26.11° C | 68% | 1015.5 hPa | 0 mm | 2.68 m/s, 221° | 371 W/m² | - |
| 1777999926 | 26.11° C | 73% | 1015.5 hPa | 0 mm | 0.45 m/s, 214° | 512 W/m² | - |
| 1777999621 | 25.56° C | 70% | 1015.4 hPa | 0 mm | 1.34 m/s, 173° | 442 W/m² | - |
| 1777999319 | 25.56° C | 68% | 1015.6 hPa | 0 mm | 2.68 m/s, 216° | 850 W/m² | - |
| 1777999017 | 25.56° C | 68% | 1015.6 hPa | 0 mm | 1.79 m/s, 229° | 797 W/m² | - |
| 1777998715 | 25.56° C | 70% | 1015.6 hPa | 0 mm | 1.79 m/s, 148° | 1013 W/m² | - |
| 1777998412 | 25.56° C | 73% | 1015.4 hPa | 0 mm | 4.02 m/s, 225° | 902 W/m² | - |
| 1777998109 | 25.56° C | 68% | 1015.6 hPa | 0 mm | 0.89 m/s, 174° | 1039 W/m² | - |
| 1777997806 | 25.56° C | 70% | 1015.4 hPa | 0 mm | 1.34 m/s, 150° | 382 W/m² | - |
| 1777997503 | 25.56° C | 70% | 1015.5 hPa | 0 mm | 1.79 m/s, 142° | 917 W/m² | - |
| 1777997201 | 25° C | 74% | 1015.6 hPa | 0 mm | 1.34 m/s, 166° | 972 W/m² | - |
| 1777996898 | 24.44° C | 73% | 1015.8 hPa | 0 mm | 1.34 m/s, 184° | 208 W/m² | - |
| 1777996594 | 24.44° C | 73% | 1015.7 hPa | 0 mm | 3.13 m/s, 195° | 210 W/m² | - |
| 1777996291 | 24.44° C | 70% | 1015.6 hPa | 0 mm | 1.34 m/s, 136° | 740 W/m² | - |
| 1777995987 | 24.44° C | 75% | 1015.8 hPa | 0 mm | 0.45 m/s, 338° | 702 W/m² | - |
| 1777995683 | 24.44° C | 71% | 1015.9 hPa | 0 mm | 0.89 m/s, 266° | 676 W/m² | - |
| 1777995380 | 24.44° C | 71% | 1015.8 hPa | 0 mm | 2.68 m/s, 192° | 594 W/m² | - |
| 1777995078 | 24.44° C | 72% | 1015.9 hPa | 0 mm | 0.89 m/s, 183° | 681 W/m² | - |
| 1777994774 | 24.44° C | 72% | 1015.7 hPa | 0 mm | 1.79 m/s, 186° | 548 W/m² | - |
| 1777994470 | 23.89° C | 73% | 1015.7 hPa | 0 mm | 1.34 m/s, 176° | 656 W/m² | - |
| 1777994165 | 23.89° C | 74% | 1015.5 hPa | 0 mm | 1.79 m/s, 194° | 645 W/m² | - |
* Rain latest hour (hover to see other rain measurements)
** Current wind speed in m/s (hover to see current wind gust speed)